Flag for Philippines Weather past 2 weeks in Mabalacat, Philippines

Now
73 °F

Light rain. Mostly cloudy.


Feels Like: 68 °F
Forecast: 76 / 83 °F
Wind: 12 mph from South

Location: Clarkfield Pampanga International Airport

Current Time: Sep 19, 2014 at 6:22:32 PM

Latest Report: Sep 19, 2014 at 6:00 PM


Visibility: 4 mi

Pressure: 29.62 "Hg

Humidity: 100%

Dew point: 73 °F

Location of MabalacatLocation

Historic Weather in Mabalacat — Graph

°F

Mabalacat temperature yesterday

Maximum temperature yesterday: 91 °F (at 2:00 PM)
Minimum temperature yesterday: 75 °F (at 1:00 AM)
Average temperature yesterday: 82 °F

Past Weeks' High & Low Weather Summary

 TemperatureHumidityPressure
High91 °F (Sep 17, 3:00 PM)100% (Sep 4, 7:00 PM)30.86 "Hg (Sep 4, 7:00 PM)
Low73 °F (Sep 8, 10:00 PM)55% (Sep 16, 2:00 PM)29.50 "Hg (Sep 15, 12:00 AM)
Average79 °F89%29.78 "Hg
* Reported Sep 4 5:00 PM — Sep 19 5:00 PM, Mabalacat, Weather by CustomWeather, © 2014

Note: Actual official high and low records may vary slightly from our data, if they occured in-between our weather recording intervals... More about our weather records

Advertising

Mabalacat weather history for previous 24 hours

 ConditionsComfort  
Time TempWeatherWind HumidityBarometerVisibility
5:00 PM
Sep 19
73 °FRain. More clouds than sun.14 mph100%29.59 "Hg3 mi
4:00 PM75 °FLight rain. More clouds than sun.8 mph100%29.53 "Hg4 mi
3:00 PM75 °FRain. More clouds than sun.10 mph100%29.56 "Hg3 mi
2:00 PM77 °FLight rain. More clouds than sun.7 mph100%29.53 "Hg4 mi
1:00 PM77 °FLight rain. More clouds than sun.6 mph100%29.56 "Hg4 mi
12:00 PM77 °FLight rain. More clouds than sun.6 mph100%29.59 "Hg4 mi
11:00 AM77 °FLight rain. More clouds than sun.3 mph100%29.59 "Hg4 mi
10:00 AM77 °FRain. More clouds than sun.5 mph100%29.59 "Hg3 mi
9:00 AM79 °FLight rain. More clouds than sun.1 mph100%29.62 "Hg3 mi
8:00 AM79 °FLight rain. More clouds than sun.1 mph100%29.59 "Hg3 mi
7:00 AM79 °FLight rain. More clouds than sun.2 mph100%29.56 "Hg3 mi
6:00 AM77 °FLight rain. More clouds than sun.5 mph100%29.56 "Hg3 mi
5:00 AM79 °FMostly cloudy.8 mph100%29.56 "Hg3 mi
4:00 AM79 °FMostly cloudy.5 mph100%29.56 "Hg5 mi
3:00 AM79 °FMostly cloudy.1 mph100%29.56 "Hg5 mi
2:00 AM79 °FMostly cloudy.3 mph100%29.59 "Hg5 mi
1:00 AM79 °FLight rain. Mostly cloudy.5 mph100%29.59 "Hg5 mi
12:00 AM81 °FLight rain. Mostly cloudy.5 mph100%29.68 "Hg6 mi
11:00 PM
Sep 18
81 °FMostly cloudy.3 mph100%29.68 "Hg6 mi
10:00 PM81 °FOvercast.2 mph94%29.71 "HgN/A
9:00 PM82 °FPassing clouds.2 mph89%29.68 "HgN/A
8:00 PM82 °FMostly cloudy.6 mph89%29.71 "Hg5 mi
7:00 PM82 °FMostly cloudy.8 mph84%29.68 "Hg5 mi
6:00 PM82 °FMostly cloudy.8 mph84%29.65 "HgN/A
Weather by CustomWeather, © 2014

See weather overviewHow to use our weather pages